TVF21D LFPO-LOWW

Flight info

Callsign TVF21D
Flight time N/A
Altitude 33000
Route BUBLI DCT LUVAL DCT BEGAR DCT TRA DCT GAMSA DCT TULSI DCT INPUL DCT NEMAL NEMAL2W
Aircraft A320/M-SDE3FGHIRWY/LB1

Departure

Time N/A
Airport Paris-Orly Airport (LFPO)

Arrival

Time 2026-05-03 20:52
Airport Vienna International Airport (LOWW)
Time Latitude Longitude Altitude Speed Heading
2026-05-03 20:15 47.82551 11.84172 32969 ft 477 kts 85°
2026-05-03 20:15 47.83085 11.94030 32967 ft 477 kts 86°
2026-05-03 20:16 47.83607 12.03881 32967 ft 478 kts 86°
2026-05-03 20:16 47.84129 12.13761 32959 ft 478 kts 86°
2026-05-03 20:17 47.84635 12.23620 32958 ft 478 kts 86°
2026-05-03 20:17 47.85131 12.33477 32953 ft 478 kts 86°
2026-05-03 20:18 47.85629 12.43319 32951 ft 477 kts 86°
2026-05-03 20:18 47.86115 12.53197 32954 ft 477 kts 86°
2026-05-03 20:19 47.86586 12.63042 32957 ft 477 kts 86°
2026-05-03 20:19 47.87053 12.72889 32967 ft 476 kts 86°
2026-05-03 20:20 47.87513 12.82730 32969 ft 476 kts 86°
2026-05-03 20:20 47.87962 12.92558 32980 ft 475 kts 86°
2026-05-03 20:21 47.88392 13.02307 32979 ft 474 kts 86°
2026-05-03 20:21 47.88819 13.12116 32974 ft 474 kts 86°
2026-05-03 20:22 47.89248 13.21907 32971 ft 473 kts 86°
2026-05-03 20:22 47.89661 13.31684 32970 ft 473 kts 86°
2026-05-03 20:23 47.90064 13.41474 32959 ft 472 kts 86°
2026-05-03 20:23 47.90464 13.51245 32946 ft 472 kts 86°
2026-05-03 20:24 47.90855 13.61017 32952 ft 472 kts 86°
2026-05-03 20:24 47.91232 13.70776 32949 ft 472 kts 86°
2026-05-03 20:25 47.91599 13.80544 32942 ft 471 kts 86°
2026-05-03 20:25 47.91764 13.90313 32947 ft 472 kts 90°
2026-05-03 20:26 47.91670 14.00014 32956 ft 470 kts 86°
2026-05-03 20:26 47.92217 14.04794 32951 ft 468 kts 71°
2026-05-03 20:26 47.93402 14.09302 32939 ft 467 kts 66°
2026-05-03 20:27 47.95939 14.18242 32940 ft 468 kts 65°
2026-05-03 20:27 47.98490 14.27175 32938 ft 468 kts 66°
2026-05-03 20:28 48.00960 14.36183 32935 ft 468 kts 67°
2026-05-03 20:28 48.03326 14.45238 32943 ft 468 kts 68°
2026-05-03 20:29 48.05676 14.54322 32952 ft 468 kts 67°
2026-05-03 20:29 48.08051 14.63398 32768 ft 468 kts 67°
2026-05-03 20:29 48.09241 14.67933 32501 ft 468 kts 67°
2026-05-03 20:30 48.10429 14.72472 32246 ft 469 kts 67°
2026-05-03 20:30 48.11615 14.77017 31992 ft 469 kts 67°
2026-05-03 20:30 48.12800 14.81572 31730 ft 470 kts 67°
2026-05-03 20:30 48.14005 14.86127 31485 ft 470 kts 64°
2026-05-03 20:31 48.15473 14.90488 31237 ft 469 kts 60°
2026-05-03 20:31 48.17014 14.94804 30996 ft 470 kts 60°
2026-05-03 20:31 48.18559 14.99120 30717 ft 469 kts 60°
2026-05-03 20:31 48.20117 15.03325 29908 ft 468 kts 57°
2026-05-03 20:32 48.21880 15.07436 28753 ft 470 kts 55°
2026-05-03 20:32 48.23687 15.11536 27608 ft 473 kts 55°
2026-05-03 20:32 48.25518 15.15659 26437 ft 476 kts 55°
2026-05-03 20:32 48.27374 15.19808 25234 ft 480 kts 55°
2026-05-03 20:33 48.29323 15.23897 24096 ft 483 kts 51°
2026-05-03 20:33 48.31439 15.27789 23222 ft 479 kts 50°
2026-05-03 20:33 48.33549 15.31612 22337 ft 473 kts 50°
2026-05-03 20:33 48.35648 15.35400 21505 ft 468 kts 50°
2026-05-03 20:34 48.37816 15.38965 21087 ft 450 kts 45°
2026-05-03 20:34 48.39953 15.42213 20465 ft 427 kts 45°
2026-05-03 20:34 48.42035 15.45358 19681 ft 422 kts 45°
2026-05-03 20:34 48.44095 15.48461 19159 ft 417 kts 45°
2026-05-03 20:35 48.46111 15.51492 18988 ft 397 kts 45°
2026-05-03 20:35 48.48020 15.54361 18533 ft 380 kts 45°
2026-05-03 20:35 48.49876 15.57144 17760 ft 373 kts 45°
2026-05-03 20:35 48.51089 15.58960 17200 ft 369 kts 45°
2026-05-03 20:36 48.53508 15.62585 16082 ft 364 kts 45°
2026-05-03 20:36 48.55295 15.65266 15283 ft 360 kts 45°
2026-05-03 20:36 48.57060 15.67915 14499 ft 357 kts 45°
2026-05-03 20:36 48.58823 15.70562 14037 ft 358 kts 45°
2026-05-03 20:37 48.60585 15.73211 13608 ft 356 kts 45°
2026-05-03 20:37 48.62332 15.75839 13167 ft 353 kts 45°
2026-05-03 20:37 48.64019 15.78524 12726 ft 350 kts 50°
2026-05-03 20:37 48.65600 15.81309 12295 ft 348 kts 50°
2026-05-03 20:38 48.67110 15.84153 11860 ft 344 kts 59°
2026-05-03 20:38 48.68229 15.87324 11448 ft 341 kts 65°
2026-05-03 20:38 48.69102 15.90629 11035 ft 336 kts 74°
2026-05-03 20:38 48.69766 15.93993 10673 ft 332 kts 75°
2026-05-03 20:39 48.70405 15.97340 10316 ft 329 kts 76°
2026-05-03 20:39 48.71034 16.00647 9960 ft 325 kts 75°
2026-05-03 20:39 48.71646 16.03927 9577 ft 321 kts 78°
2026-05-03 20:39 48.71785 16.07232 9187 ft 313 kts 100°
2026-05-03 20:40 48.71258 16.10389 8798 ft 306 kts 117°
2026-05-03 20:40 48.70060 16.12979 8463 ft 297 kts 136°
2026-05-03 20:40 48.68636 16.15171 8308 ft 287 kts 136°
2026-05-03 20:40 48.67204 16.17389 8149 ft 297 kts 136°
2026-05-03 20:41 48.66250 16.18869 8034 ft 298 kts 136°
2026-05-03 20:41 48.64338 16.21846 7805 ft 297 kts 136°
2026-05-03 20:41 48.62896 16.24085 7638 ft 297 kts 136°
2026-05-03 20:41 48.61455 16.26319 7452 ft 296 kts 136°
2026-05-03 20:42 48.60014 16.28541 7299 ft 296 kts 137°
2026-05-03 20:42 48.58381 16.30377 7116 ft 293 kts 149°
2026-05-03 20:42 48.57226 16.31497 6984 ft 292 kts 149°
2026-05-03 20:42 48.55517 16.33156 6797 ft 291 kts 148°
2026-05-03 20:43 48.53842 16.34782 6609 ft 290 kts 149°
2026-05-03 20:43 48.52150 16.36423 6417 ft 288 kts 149°
2026-05-03 20:43 48.50466 16.38052 6220 ft 287 kts 149°
2026-05-03 20:43 48.48788 16.39672 6018 ft 285 kts 149°
2026-05-03 20:44 48.47122 16.41281 5816 ft 284 kts 149°
2026-05-03 20:44 48.45452 16.42889 5598 ft 283 kts 149°
2026-05-03 20:44 48.43740 16.44319 5346 ft 279 kts 160°
2026-05-03 20:44 48.41895 16.45143 5108 ft 274 kts 166°
2026-05-03 20:45 48.40096 16.45885 4982 ft 260 kts 166°
2026-05-03 20:45 48.38412 16.46580 4982 ft 241 kts 166°
2026-05-03 20:45 48.36850 16.47235 4989 ft 224 kts 165°
2026-05-03 20:45 48.35400 16.47853 4992 ft 212 kts 166°
2026-05-03 20:46 48.33983 16.48458 4942 ft 212 kts 166°
2026-05-03 20:46 48.32570 16.49061 4743 ft 210 kts 166°
2026-05-03 20:46 48.31172 16.49657 4481 ft 208 kts 166°
2026-05-03 20:46 48.29778 16.50252 4206 ft 208 kts 166°
2026-05-03 20:47 48.28399 16.50840 3929 ft 202 kts 166°
2026-05-03 20:47 48.27073 16.51406 3675 ft 194 kts 166°
2026-05-03 20:47 48.25808 16.51945 3442 ft 184 kts 166°
2026-05-03 20:47 48.24611 16.52454 3206 ft 174 kts 166°
2026-05-03 20:48 48.23472 16.52939 2964 ft 166 kts 166°
2026-05-03 20:48 48.22403 16.53394 2766 ft 151 kts 166°
2026-05-03 20:48 48.21439 16.53803 2566 ft 140 kts 166°
2026-05-03 20:48 48.20560 16.54177 2391 ft 128 kts 166°
2026-05-03 20:49 48.19734 16.54528 2228 ft 119 kts 165°
2026-05-03 20:49 48.18938 16.54865 2075 ft 116 kts 165°
2026-05-03 20:49 48.18164 16.55190 1916 ft 115 kts 165°
2026-05-03 20:49 48.17404 16.55509 1760 ft 115 kts 163°
2026-05-03 20:50 48.16637 16.55838 1594 ft 118 kts 165°
2026-05-03 20:50 48.15819 16.56185 1452 ft 121 kts 165°
2026-05-03 20:50 48.14986 16.56536 1274 ft 129 kts 165°
2026-05-03 20:50 48.14121 16.56908 1085 ft 129 kts 163°
2026-05-03 20:51 48.13271 16.57267 920 ft 129 kts 163°
2026-05-03 20:51 48.12405 16.57632 733 ft 129 kts 162°
2026-05-03 20:51 48.11572 16.57990 624 ft 115 kts 164°
2026-05-03 20:51 48.10954 16.58250 614 ft 62 kts 165°
2026-05-03 20:52 48.10702 16.58278 610 ft 28 kts 191°
2026-05-03 20:52 48.10622 16.58254 610 ft 0 kts 201°
2026-05-03 20:52 48.10565 16.58217 622 ft 14 kts 212°
2026-05-03 20:52 48.10577 16.58132 620 ft 8 kts 335°
2026-05-03 20:53 48.10656 16.58098 613 ft 15 kts 343°
2026-05-03 20:53 48.10783 16.58042 615 ft 23 kts 345°
2026-05-03 20:53 48.10926 16.57978 621 ft 17 kts 331°
2026-05-03 20:53 48.11030 16.57818 618 ft 28 kts 310°
2026-05-03 20:54 48.11114 16.57605 617 ft 19 kts 335°
2026-05-03 20:54 48.11284 16.57331 614 ft 24 kts 294°
2026-05-03 20:54 48.11367 16.57072 613 ft 32 kts 297°
2026-05-03 20:55 48.11461 16.56781 623 ft 29 kts 296°
2026-05-03 20:55 48.11551 16.56507 618 ft 30 kts 295°
2026-05-03 20:55 48.11642 16.56228 612 ft 30 kts 296°
2026-05-03 20:55 48.11732 16.55955 617 ft 26 kts 296°
2026-05-03 20:56 48.11826 16.55851 616 ft 17 kts 19°
2026-05-03 20:56 48.11926 16.55924 610 ft 13 kts 26°
2026-05-03 20:56 48.11988 16.55928 615 ft 7 kts 307°
2026-05-03 20:56 48.12009 16.55869 622 ft 4 kts 296°
2026-05-03 20:57 48.12010 16.55866 621 ft 0 kts 296°